Location: Santa Cristina
(46.5667°N, 11.7167°E)
Time: 06:49:53
(UTC+00:00)

CZ-2D R/B - Pass Details

Date: 21 April 2021
Orbit: 553 x 637 km, 97.9° (Epoch: 15 May)

Event Time Altitude Azimuth Distance (km) Brightness Sun altitude
Rises 03:28:57 0° 3° (N) 2,798 7.4 -8.2°
Reaches altitude 10° 03:31:15 10° 353° (N) 1,908 6.3 -7.8°
Maximum altitude 03:34:52 30° 292° (WNW) 1,071 4.5 -7.3°
Drops below altitude 10° 03:38:33 10° 231° (SW) 1,940 5.5 -6.7°
Enters shadow 03:39:14 - 227° (SW) 2,192 5.8 -6.6°
